GFSSE_850_rhum_354.txt.gz
RH
68 71 84 87 70 60 69 71 70 78 82 76 65 66 74 72 71 69 67 71 77 79 79 82 92 78 75 72 73 76 66 53 44 32 61 71 65 90 90 91 90 60 66
68 72 81 82 75 65 52 68 70 71 82 82 64 64 72 78 80 78 81 80 79 80 81 84 84 82 67 76 80 83 81 66 52 38 66 82 82 62 61 76 54 89 66
74 77 85 83 80 76 66 58 67 68 73 78 72 66 69 73 83 89 85 83 83 82 83 83 80 79 83 79 76 79 76 73 64 46 50 68 69 52 75 63 45 44 42
79 82 88 89 81 77 79 80 60 73 74 74 75 74 68 74 78 83 86 87 86 88 85 79 75 80 82 80 70 63 65 69 74 73 49 49 68 78 80 79 70 61 54
85 83 87 93 87 89 80 73 72 80 79 81 84 83 76 73 77 85 87 86 79 80 82 82 80 82 83 81 76 75 71 72 72 71 62 48 55 71 80 78 86 87 77
98 86 89 92 86 89 82 76 77 80 86 84 89 91 82 79 85 85 84 85 76 70 81 80 82 85 86 87 88 84 80 70 69 74 80 84 75 58 49 81 88 93 91
99 90 87 88 91 91 97 80 76 75 79 88 92 94 94 90 87 79 77 78 80 73 82 82 78 77 81 85 85 82 79 78 76 74 78 82 84 86 70 57 88 93 77
98 97 92 92 92 92 87 82 87 92 89 90 95 95 94 95 96 90 86 86 79 77 80 83 70 78 82 83 84 81 74 74 75 75 79 86 87 86 80 76 66 65 66
99 100 95 97 99 93 89 85 89 92 87 95 95 92 78 91 94 89 87 79 78 84 88 84 84 83 80 81 82 78 78 76 71 80 84 84 82 77 75 80 84 82 83
99 97 100 98 99 98 98 94 95 100 93 75 64 47 36 51 73 76 74 75 76 77 76 86 88 86 88 89 88 82 80 75 75 85 92 92 86 83 78 76 75 78 77
100 100 100 98 94 89 88 97 99 100 86 85 83 75 62 51 60 73 77 77 80 84 87 89 93 94 95 94 91 90 88 85 81 96 99 96 93 92 97 97 92 87 83
99 100 100 98 97 96 91 96 98 98 95 96 93 86 82 73 65 62 72 81 82 81 82 85 90 94 95 92 92 91 85 90 91 97 100 98 93 91 92 94 91 96 91
100 100 99 99 100 98 99 97 99 99 99 99 93 90 88 85 82 83 76 73 72 74 77 84 88 91 91 88 85 84 87 90 96 99 98 97 95 98 96 98 99 99 99
100 100 100 99 98 99 98 98 99 99 99 98 95 97 93 90 90 89 88 85 82 80 83 82 86 86 88 86 87 85 82 85 91 95 100 100 97 95 94 94 99 86 88
100 100 99 100 100 99 100 99 99 99 96 95 96 93 96 94 93 93 92 90 87 83 80 82 85 89 85 82 83 84 87 88 92 95 95 100 100 99 100 100 97 88 96
100 100 100 100 100 100 99 99 98 96 93 94 94 92 92 91 91 90 92 89 87 88 85 86 84 84 83 80 82 81 81 79 73 68 78 89 99 100 99 97 98 99 99
100 100 100 100 100 100 100 99 97 97 92 93 89 91 89 90 88 88 89 86 84 82 80 78 72 70 65 62 62 53 48 43 37 32 30 25 32 80 100 98 88 86 77
100 100 100 100 100 100 100 100 99 98 93 90 88 90 91 89 86 85 82 81 79 76 67 66 64 61 55 50 44 34 29 23 17 13 10 8 6 6 14 28 27 16 6
100 100 99 95 94 97 99 99 98 99 97 94 93 92 88 84 75 70 71 70 66 60 51 50 49 46 42 31 23 13 9 7 6 6 5 5 5 4 4 3 3 3 3
99 100 96 91 91 94 94 95 95 91 90 88 87 82 73 66 57 50 46 44 38 27 20 18 18 15 14 10 9 9 11 11 11 10 9 9 8 8 8 7 7 6 6
94 96 90 89 93 92 88 87 84 82 80 78 69 58 45 35 26 19 15 12 9 8 8 8 8 9 10 10 9 15 16 16 13 12 11 11 10 10 10 10 9 8 8
84 92 89 88 90 85 80 78 74 71 64 56 43 29 20 15 11 10 9 8 8 8 9 10 10 10 12 14 15 16 21 22 20 16 14 14 13 13 13 12 12 11 10
85 89 87 86 80 76 71 67 61 55 48 39 29 20 14 11 10 10 9 9 9 10 10 11 12 11 11 16 18 20 23 26 22 22 19 16 15 14 14 13 12 11 10
85 85 82 80 76 71 66 60 53 48 40 33 24 16 12 11 10 11 11 11 11 12 12 12 14 15 14 13 19 16 15 17 21 26 24 22 17 15 14 13 12 10 8
79 79 75 71 66 62 57 50 43 37 32 25 19 15 13 11 11 12 12 12 13 13 14 14 14 16 17 17 15 15 14 14 14 16 23 22 17 15 14 13 12 10 8
72 69 66 62 58 54 50 44 37 31 27 22 18 16 14 13 13 14 14 15 15 16 16 16 16 17 16 16 16 16 15 15 15 15 16 17 16 16 15 14 12 11 9

GFSSE_850_rhum_357.txt.gz
RH
65 66 67 81 77 59 60 74 78 78 74 71 58 64 66 64 64 67 70 74 76 73 80 83 76 69 74 80 51 37 37 62 51 58 66 72 81 77 55 43 72 59 90
67 68 74 83 68 57 68 73 77 77 80 74 64 68 74 70 66 66 72 76 79 77 84 84 74 72 75 76 60 52 40 36 70 66 66 86 86 86 85 88 61 55 90
70 70 78 78 70 60 58 66 70 74 81 80 71 66 78 78 76 76 77 80 82 81 85 83 79 76 76 76 74 62 45 37 66 79 79 54 45 52 50 74 53 84 85
68 71 78 79 79 66 56 58 70 71 80 88 90 69 76 83 86 91 91 88 85 82 82 80 79 74 78 79 73 68 61 45 45 52 48 68 80 71 61 43 49 85 87
69 73 81 81 80 70 73 73 65 71 76 84 84 79 74 83 86 85 90 90 85 78 76 77 83 80 77 65 68 70 73 71 47 45 53 66 80 80 78 71 55 66 78
67 75 79 94 82 77 78 80 68 75 75 84 87 84 76 81 82 87 87 81 72 73 75 80 82 81 75 72 69 74 77 75 71 58 49 54 71 81 85 90 92 75 66
65 75 83 95 86 82 77 75 76 82 81 82 85 87 91 84 77 86 81 81 81 81 78 83 86 82 81 81 79 75 73 76 79 84 84 76 58 66 85 93 90 68 59
72 84 86 90 85 87 87 81 77 80 89 91 93 92 89 84 77 78 69 70 81 86 84 88 90 88 86 82 79 78 77 75 73 79 84 88 87 81 68 78 63 62 66
96 87 90 93 90 93 92 80 82 86 90 91 95 95 90 85 88 86 78 76 80 81 79 91 85 82 82 81 78 77 78 73 73 80 87 88 82 80 78 79 80 78 78
100 98 95 97 96 94 88 85 88 89 90 87 91 91 84 91 88 86 74 81 86 91 88 93 88 83 82 81 81 81 80 76 78 84 82 85 84 83 78 82 83 83 86
100 99 100 100 100 95 90 85 86 81 70 74 84 83 75 73 83 80 79 79 78 84 92 86 86 85 87 86 85 83 80 76 82 92 94 92 89 86 86 84 84 85 85
99 100 99 100 100 93 92 91 91 85 80 84 74 61 51 66 79 76 74 81 85 87 91 86 92 95 95 93 92 92 88 82 79 98 98 96 92 92 94 94 95 98 96
100 100 100 100 100 90 88 90 96 98 90 99 95 86 78 66 66 71 68 70 77 84 84 89 95 100 98 96 96 94 90 96 99 100 97 97 95 95 95 95 94 99 100
99 100 100 100 99 92 90 91 95 99 98 98 95 91 90 85 77 76 75 75 78 84 84 89 93 97 99 95 96 94 92 98 99 99 95 98 98 98 99 99 98 92 91
100 100 98 100 100 100 100 99 97 96 98 98 96 93 93 89 87 89 87 88 87 90 92 93 95 95 97 100 100 100 100 100 100 100 98 99 100 100 100 99 100 94 88
100 100 100 99 100 100 100 100 100 98 97 98 99 97 98 97 95 95 93 97 96 99 95 94 93 95 98 99 99 99 100 99 100 100 100 99 100 99 99 100 96 90 91
100 100 100 100 99 99 100 100 100 100 100 98 98 100 100 99 98 92 93 97 96 97 96 94 98 95 91 91 87 88 88 86 88 98 100 100 95 92 90 92 92 96 99
99 100 100 100 100 100 99 100 100 100 100 97 96 97 97 94 92 90 88 89 97 93 90 90 86 86 83 83 74 65 59 52 43 36 41 86 99 96 87 84 79 60 34
95 99 100 100 100 100 100 100 100 100 97 95 97 94 92 90 90 90 85 82 80 78 77 76 73 70 67 60 51 44 35 27 23 19 15 12 11 12 16 20 12 5 5
97 100 100 100 100 100 100 100 100 99 96 92 89 87 89 90 91 87 83 78 79 78 76 67 64 56 56 53 39 26 16 11 8 7 6 6 5 5 5 5 5 6 6
94 100 100 100 100 100 99 99 99 96 95 93 87 88 90 90 86 79 70 62 61 61 58 50 50 51 43 35 33 13 12 12 11 10 10 9 9 8 8 8 8 8 8
90 100 100 100 100 95 94 96 96 96 96 94 88 84 76 71 62 57 52 51 49 42 36 34 34 29 24 16 11 10 18 18 15 13 13 12 11 11 12 11 11 11 11
91 95 99 99 96 90 91 94 95 95 92 86 77 69 65 49 40 30 21 20 18 13 11 11 11 10 9 10 10 12 17 20 19 17 16 15 14 14 14 13 13 12 11
86 90 92 89 88 87 93 94 94 89 86 80 72 48 36 26 18 13 10 9 9 9 9 10 10 10 9 9 12 15 17 16 18 23 20 18 16 15 14 14 13 12 11
85 86 87 83 76 84 92 86 82 81 75 60 42 32 22 17 13 12 11 10 10 12 14 14 14 15 14 14 14 16 15 17 17 18 24 24 20 17 15 14 13 12 12
84 85 83 78 73 85 92 95 97 95 86 52 32 23 18 15 14 14 14 14 14 15 17 19 20 20 20 21 20 20 16 14 15 15 17 24 22 18 16 15 14 13 12

GFSSE_850_rhum_360.txt.gz
RH
57 60 64 66 70 72 63 44 47 54 75 73 58 72 74 66 62 66 67 70 71 74 72 76 71 76 57 31 67 76 75 85 82 76 65 58 50 72 86 71 75 46 30
55 61 65 67 74 69 56 57 64 64 66 72 65 67 64 64 63 66 70 70 74 77 81 69 69 76 72 32 33 66 58 57 64 73 77 80 60 42 54 62 91 86 78
51 56 63 72 72 57 60 63 69 76 76 74 66 68 67 66 68 72 76 78 80 82 83 71 72 76 56 47 36 37 58 60 66 82 88 99 77 82 46 65 87 88 88
50 57 67 70 66 60 59 63 69 72 80 80 75 75 73 72 72 75 83 86 86 88 83 77 75 74 68 59 43 41 70 73 68 69 85 89 77 49 55 85 88 91 82
50 59 67 67 69 62 54 63 69 71 78 85 82 83 86 81 79 88 90 93 92 90 83 73 77 77 78 73 52 45 71 76 67 86 97 97 95 62 70 84 82 83 57
55 61 67 71 74 65 62 54 65 71 80 86 88 92 91 92 92 85 81 79 97 94 80 77 78 80 75 77 69 68 50 51 88 92 100 98 99 87 72 62 65 59 48
65 65 72 74 88 70 70 74 62 74 76 82 90 96 96 90 88 88 89 87 86 93 88 84 81 80 78 72 74 74 63 69 88 85 89 98 86 86 94 78 65 56 62
65 72 75 86 92 78 76 74 71 75 82 90 88 93 92 88 86 92 88 76 88 94 87 85 83 83 86 76 71 72 78 80 100 100 84 84 83 89 93 85 62 64 66
66 70 78 92 93 83 76 77 79 86 88 88 89 95 97 88 81 76 72 81 84 93 92 90 91 94 84 80 78 80 80 92 100 100 98 89 79 84 76 81 83 72 72
76 78 84 93 93 91 85 89 82 88 92 88 99 99 92 92 85 78 82 78 74 71 86 85 94 85 78 76 78 81 80 87 100 100 100 88 86 85 86 85 83 84 78
77 87 94 94 93 93 96 88 83 87 85 85 84 87 97 86 89 87 84 83 79 79 80 81 77 82 78 77 77 78 76 77 89 89 89 87 83 85 85 85 89 88 87
90 86 95 98 96 98 97 93 89 88 85 84 90 88 83 89 90 90 90 90 95 81 71 74 74 86 88 89 86 84 75 84 83 93 93 90 86 86 88 89 92 96 94
100 98 100 99 99 94 96 99 97 91 88 89 91 89 75 63 88 84 88 98 100 86 77 82 88 93 92 93 95 89 83 82 90 94 100 100 97 94 94 95 100 99 99
99 100 98 100 100 100 95 97 98 93 86 82 76 66 56 66 78 84 83 85 88 83 82 100 100 98 97 98 100 96 96 96 99 99 100 100 100 97 96 97 100 99 99
98 98 100 99 98 100 95 92 97 93 94 96 95 88 80 72 75 77 85 87 87 87 88 100 100 100 100 100 100 98 100 99 100 98 99 100 100 100 99 99 100 93 89
98 98 99 100 100 99 100 100 98 96 92 96 96 93 92 86 76 80 80 87 94 93 95 100 100 100 100 100 99 100 100 100 100 99 99 99 100 100 100 98 100 93 87
100 100 100 99 99 100 100 99 100 99 96 98 96 95 93 95 93 90 89 87 92 99 95 100 100 100 100 100 100 100 100 100 100 100 99 98 98 99 99 100 100 94 94
99 99 100 100 100 99 100 100 100 100 100 98 98 100 96 98 100 98 99 98 100 100 100 100 100 100 100 100 100 98 100 100 100 100 100 100 100 100 98 100 100 97 86
100 100 99 100 100 100 100 100 100 100 100 99 99 100 100 100 100 100 97 96 97 100 100 100 100 100 100 100 98 95 92 91 97 100 99 99 99 99 99 96 84 51 47
100 100 100 100 100 100 100 100 100 100 100 100 100 100 100 100 98 93 90 88 92 97 97 100 100 97 89 84 74 54 41 34 30 32 43 56 51 35 20 14 16 15 14
98 99 99 100 100 100 100 100 100 99 99 100 100 100 100 98 94 91 89 86 81 86 84 90 89 84 74 61 54 34 21 17 14 12 10 7 6 5 5 6 7 8 9
100 97 100 100 100 100 100 100 100 100 99 98 97 96 95 90 86 86 86 83 77 70 73 75 72 68 58 49 46 33 25 21 11 10 9 8 8 8 8 9 9 9 10
95 99 98 100 100 100 100 100 100 100 99 96 90 85 88 86 79 77 67 66 64 59 60 61 59 59 58 47 40 30 28 27 19 14 12 12 11 11 11 12 12 12 11
89 94 96 100 100 100 100 100 100 98 93 94 95 93 92 94 84 70 71 50 47 46 46 49 49 46 48 43 32 14 14 12 30 30 18 15 14 13 13 13 13 12 11
94 94 92 92 94 100 100 99 99 98 96 94 88 70 80 80 59 43 38 35 36 36 34 37 37 35 31 23 14 10 13 14 14 23 36 22 17 15 14 14 13 12 12
97 96 94 89 88 94 100 100 100 100 100 98 96 72 49 50 25 21 20 17 16 17 17 19 21 19 14 12 10 14 16 16 14 15 30 31 27 19 16 15 14 14 14

GFSSE_850_rhum_363.txt.gz
RH
44 42 50 59 62 67 67 64 42 51 68 56 50 55 68 74 67 69 64 67 69 76 73 75 75 85 85 67 68 83 83 83 75 61 64 80 85 82 59 30 24 25 42
45 44 52 59 62 66 64 59 43 49 65 65 56 65 73 71 66 68 65 69 70 80 83 89 74 44 77 70 65 74 84 82 69 58 54 64 72 74 89 52 48 38 29
49 48 53 58 61 67 65 49 51 54 62 72 72 66 70 68 67 68 67 70 74 76 75 71 84 64 53 78 67 63 78 71 73 80 66 45 48 61 88 89 84 55 43
47 52 56 57 63 68 60 57 64 69 68 72 69 71 64 69 71 71 73 74 80 80 74 75 81 45 35 84 64 53 63 74 85 89 96 95 57 56 87 90 88 74 59
55 55 63 63 67 61 60 62 68 74 77 75 75 70 70 73 75 78 78 79 84 86 79 78 76 55 45 48 67 65 71 77 77 79 87 88 81 76 88 92 80 54 36
50 56 65 67 66 62 61 64 68 73 80 80 80 73 76 82 80 82 81 85 90 90 87 83 76 68 53 42 57 73 74 79 90 77 88 92 94 77 89 77 55 44 42
63 64 66 65 64 65 58 61 66 69 79 83 84 80 68 83 87 88 85 88 92 97 90 90 85 81 74 52 54 56 61 79 79 90 91 95 82 78 71 62 52 58 54
90 88 85 70 70 72 63 60 63 71 76 84 85 82 91 97 98 89 78 84 88 90 88 87 88 81 77 72 57 57 83 83 79 87 88 88 88 87 76 57 73 76 75
72 88 99 79 78 79 71 74 75 74 75 80 86 82 88 92 97 93 88 88 92 88 83 87 90 79 78 76 77 84 94 91 91 97 88 86 91 90 74 70 78 87 88
62 84 100 95 92 86 78 77 81 77 80 88 90 89 82 80 82 90 85 88 86 87 85 93 90 86 76 77 85 89 98 98 98 94 86 86 89 80 79 86 77 79 79
66 79 99 100 100 98 98 82 82 89 91 93 92 97 93 85 81 89 98 99 99 98 99 95 86 80 77 78 83 83 86 98 98 99 88 88 85 86 86 86 86 86 81
77 84 99 100 98 100 94 96 84 87 95 95 96 100 97 94 96 90 92 98 92 83 84 79 80 78 75 78 89 95 98 100 100 94 82 87 87 86 84 86 90 89 90
98 81 88 100 99 97 99 99 91 100 100 100 100 100 99 92 89 86 89 95 88 77 67 82 84 88 90 98 100 99 100 100 93 94 93 88 92 87 90 94 95 96 96
99 96 90 100 100 100 99 99 97 99 100 99 100 99 91 97 100 99 91 95 86 72 75 89 89 86 88 98 91 88 82 98 99 99 100 99 98 94 93 92 97 99 99
92 99 91 98 99 100 99 100 100 100 100 96 96 100 100 92 94 100 100 96 86 87 89 87 87 96 90 84 84 85 92 98 99 99 100 100 100 100 98 98 100 100 100
100 99 98 99 98 99 100 99 99 98 99 94 91 87 81 81 99 100 100 100 98 81 87 97 92 95 98 96 96 99 96 99 99 98 98 99 100 100 99 98 98 99 97
100 100 100 97 100 99 98 97 100 94 91 91 89 86 81 76 83 84 86 99 100 95 91 99 100 100 100 100 98 100 100 100 100 100 94 95 98 98 99 98 99 100 99
99 98 100 100 100 100 98 100 100 100 93 91 91 90 90 90 85 83 78 88 92 95 99 100 100 99 100 100 100 100 100 100 100 100 100 98 100 98 96 99 99 97 99
99 99 100 100 100 100 100 100 99 100 99 97 94 95 90 91 90 91 94 96 93 96 100 100 100 100 100 99 100 100 100 100 100 99 100 100 98 100 99 95 98 95 97
99 100 98 100 100 100 100 100 100 100 100 100 98 96 98 98 97 96 98 100 100 100 100 100 100 100 100 97 100 99 100 100 100 99 99 99 100 100 99 100 93 74 77
100 99 98 100 100 100 100 100 100 100 100 100 100 100 98 99 100 100 99 100 100 100 100 100 100 99 99 99 99 99 92 89 96 98 98 95 88 81 60 34 29 42 28
92 99 99 100 100 100 100 100 100 100 100 99 100 100 100 100 100 100 99 95 90 95 100 99 100 99 94 97 92 72 38 36 26 25 24 19 14 10 8 7 10 13 15
86 92 99 97 100 100 100 100 100 100 100 100 100 100 100 100 100 99 95 90 88 92 99 97 98 98 93 97 82 50 39 34 24 21 15 12 10 8 8 8 9 10 11
94 94 99 96 99 100 100 100 100 99 100 100 99 100 100 99 91 82 81 73 83 86 94 89 94 92 84 73 54 52 44 38 23 34 22 16 14 12 11 11 11 12 12
95 99 100 96 95 97 100 100 100 100 99 100 98 95 90 89 97 93 74 64 68 77 78 78 82 77 68 56 56 46 35 21 22 19 32 21 17 15 13 13 13 13 12
97 94 98 99 96 94 100 100 100 100 100 100 99 95 98 95 96 90 72 67 65 71 70 67 66 63 56 53 48 42 26 15 14 14 20 18 18 18 15 15 14 13 13